Flag for Brazil Weather past 2 weeks in Fortaleza, Ceará, Brazil

Now
82 °F

Light rain. Mostly cloudy.


Feels Like: 89 °F
Forecast: 79 / 85 °F
Wind: 8 mph from East

Location: Fortaleza Aeropor-To


UV Index: 7 (High)

Visibility: 3 mi


Pressure: 29.92 "Hg

Humidity: 79%

Dew point: 75 °F

Location of FortalezaLocation

Historic Weather in Fortaleza

°F

Fortaleza temperature yesterday

Maximum temperature yesterday: 86 °F (at 11:00 AM)
Minimum temperature yesterday: 75 °F (at 2:00 AM)
Average temperature yesterday: 81 °F

Past Weeks' High & Low Weather Summary

 TemperatureHumidityPressure
High88 °F (Apr 14, 12:00 PM)100% (Apr 9, 8:00 AM)29.98 "Hg (Apr 9, 8:00 AM)
Low39 °F (Apr 9, 8:00 AM)40% (Apr 7, 8:00 AM)29.77 "Hg (Apr 14, 2:00 PM)
Average80 °F77%29.87 "Hg
* Reported Apr 5 9:00 PM — Apr 20 9:00 PM, Fortaleza, Weather by CustomWeather, © 2014

Note: Actual official high and low records may vary slightly from our data, if they occured in-between our weather recording intervals... More about our weather records

Advertising

Historic Weather Conditions — Data for Previous 24 hours

 ConditionsComfort  
Time TempWeatherWind HumidityBarometerVisibility
9:00 PM
Apr 20
82 °FPassing clouds.7 mph74%29.89 "HgN/A
8:00 PM82 °FPassing clouds.10 mph74%29.86 "HgN/A
7:00 PM82 °FClear.10 mph70%29.86 "Hg10 mi
6:00 PM82 °FPassing clouds.8 mph70%29.83 "HgN/A
5:00 PM84 °FPassing clouds.9 mph62%29.83 "HgN/A
4:00 PM86 °FPassing clouds.15 mph55%29.83 "HgN/A
3:00 PM86 °FPassing clouds.17 mph52%29.83 "HgN/A
2:00 PM88 °FPassing clouds.17 mph52%29.83 "HgN/A
1:00 PM88 °FPassing clouds.18 mph49%29.86 "HgN/A
12:00 PM88 °FPassing clouds.18 mph49%29.86 "HgN/A
11:00 AM86 °FScattered clouds.17 mph62%29.89 "HgN/A
10:00 AM84 °FPartly sunny.12 mph66%29.89 "HgN/A
9:00 AM82 °FPartly sunny.12 mph70%29.92 "HgN/A
8:00 AM82 °FPassing clouds.14 mph70%29.92 "HgN/A
7:00 AM79 °FScattered clouds.12 mph79%29.89 "HgN/A
6:00 AM79 °FPartly sunny.8 mph84%29.86 "HgN/A
5:00 AM79 °FLight rain. Passing clouds.7 mph84%29.86 "HgN/A
4:00 AM81 °FPassing clouds.7 mph79%29.86 "HgN/A
3:00 AM81 °FPassing clouds.12 mph79%29.83 "HgN/A
2:00 AM81 °FPassing clouds.10 mph79%29.83 "HgN/A
1:00 AM81 °FPassing clouds.8 mph79%29.86 "HgN/A
12:00 AM81 °FPassing clouds.8 mph79%29.89 "HgN/A
11:00 PM
Apr 19
82 °FPassing clouds.12 mph70%29.89 "HgN/A
10:00 PM81 °FClear.5 mph79%29.89 "Hg10 mi
Weather by CustomWeather, © 2014

See weather overview